Location: Newark
(13.6797°N, 8.5297°E)
Time: 02:47:17
(UTC+00:00)

Altair - Pass Details

Date: 30 January 2020
Orbit: 1502 x 1682 km, 47.2° (Epoch: 19 February)

Event Time Altitude Azimuth Distance (km) Brightness Sun altitude
Rises 12:02:44 0° 335° (NNW) 4,927 9.9 58.1°
Reaches altitude 10° 12:07:36 10° 354° (N) 3,928 9.4 57.8°
Maximum altitude 12:13:42 17° 32° (NNE) 3,346 9.2 57.5°
Drops below altitude 10° 12:19:42 10° 70° (ENE) 3,868 9.5 57.0°
Sets 12:24:22 0° 89° (E) 4,821 10.0 56.7°
